QPF
0.00 0.00 0.00 0.00 0.00 0.00 0.00 0.00 0.00 0.00 0.00 0.00 0.00 0.00 0.00 0.00 0.00 0.00 0.00 0.00 0.00 0.00 0.00 0.00 0.01 0.00 0.00 0.00 0.00 0.00 0.00 0.00 0.02 0.03 0.06 0.10 0.06 0.03 0.05 0.10 0.08 0.04 0.01 0.00 0.00 0.00 0.00 0.00 0.00
0.00 0.00 0.00 0.00 0.00 0.00 0.00 0.00 0.00 0.00 0.00 0.00 0.00 0.00 0.00 0.00 0.00 0.00 0.00 0.00 0.00 0.00 0.00 0.00 0.01 0.01 0.00 0.00 0.00 0.00 0.00 0.00 0.00 0.00 0.01 0.02 0.07 0.03 0.05 0.10 0.10 0.01 0.00 0.00 0.00 0.00 0.00 0.00 0.00
0.00 0.00 0.00 0.00 0.00 0.00 0.00 0.00 0.00 0.00 0.00 0.00 0.00 0.00 0.00 0.00 0.00 0.00 0.00 0.00 0.00 0.00 0.00 0.00 0.01 0.00 0.00 0.00 0.00 0.00 0.00 0.00 0.00 0.00 0.00 0.00 0.03 0.06 0.13 0.08 0.10 0.02 0.00 0.00 0.00 0.00 0.00 0.00 0.00
0.00 0.00 0.00 0.00 0.00 0.00 0.00 0.00 0.00 0.00 0.00 0.00 0.00 0.00 0.00 0.00 0.00 0.00 0.00 0.00 0.00 0.00 0.00 0.00 0.01 0.00 0.00 0.00 0.00 0.00 0.00 0.00 0.00 0.00 0.00 0.00 0.00 0.00 0.03 0.01 0.01 0.01 0.00 0.00 0.00 0.00 0.00 0.00 0.01
0.00 0.00 0.00 0.00 0.00 0.00 0.00 0.00 0.00 0.00 0.00 0.00 0.00 0.00 0.00 0.00 0.00 0.00 0.00 0.00 0.00 0.00 0.00 0.00 0.00 0.00 0.00 0.00 0.00 0.00 0.00 0.00 0.00 0.00 0.00 0.00 0.00 0.00 0.00 0.00 0.00 0.00 0.00 0.00 0.00 0.00 0.00 0.00 0.00
0.00 0.00 0.00 0.00 0.00 0.00 0.00 0.00 0.00 0.00 0.00 0.00 0.00 0.00 0.00 0.00 0.00 0.00 0.00 0.00 0.00 0.00 0.00 0.00 0.00 0.00 0.00 0.00 0.00 0.00 0.00 0.00 0.00 0.00 0.00 0.00 0.00 0.00 0.00 0.00 0.00 0.00 0.01 0.00 0.00 0.00 0.00 0.00 0.00
0.00 0.00 0.00 0.00 0.00 0.00 0.00 0.00 0.00 0.00 0.00 0.00 0.00 0.00 0.00 0.00 0.00 0.00 0.00 0.00 0.00 0.00 0.00 0.00 0.00 0.00 0.00 0.00 0.00 0.00 0.00 0.00 0.00 0.00 0.00 0.00 0.00 0.00 0.00 0.00 0.00 0.00 0.01 0.02 0.01 0.00 0.00 0.00 0.00
0.00 0.00 0.00 0.00 0.00 0.00 0.00 0.00 0.00 0.00 0.00 0.00 0.00 0.00 0.00 0.00 0.00 0.00 0.00 0.00 0.00 0.00 0.00 0.00 0.00 0.00 0.00 0.00 0.00 0.00 0.00 0.00 0.00 0.00 0.00 0.00 0.00 0.00 0.00 0.00 0.00 0.00 0.00 0.01 0.01 0.00 0.00 0.01 0.00
0.00 0.00 0.00 0.00 0.00 0.00 0.00 0.00 0.00 0.00 0.00 0.00 0.00 0.00 0.00 0.00 0.00 0.00 0.00 0.00 0.00 0.00 0.00 0.00 0.00 0.00 0.00 0.00 0.00 0.00 0.00 0.00 0.00 0.00 0.00 0.00 0.00 0.00 0.00 0.00 0.00 0.00 0.00 0.01 0.01 0.01 0.00 0.00 0.00
0.00 0.00 0.00 0.00 0.00 0.00 0.00 0.00 0.00 0.00 0.00 0.00 0.00 0.00 0.00 0.00 0.00 0.00 0.00 0.00 0.00 0.00 0.00 0.00 0.00 0.00 0.00 0.00 0.00 0.00 0.00 0.00 0.00 0.00 0.00 0.00 0.00 0.00 0.00 0.00 0.00 0.00 0.00 0.02 0.01 0.00 0.00 0.00 0.00
0.00 0.00 0.00 0.00 0.00 0.00 0.00 0.00 0.00 0.00 0.00 0.00 0.00 0.00 0.00 0.00 0.00 0.00 0.00 0.00 0.00 0.00 0.00 0.00 0.00 0.00 0.00 0.00 0.00 0.00 0.00 0.00 0.00 0.00 0.00 0.00 0.00 0.00 0.00 0.00 0.00 0.00 0.00 0.01 0.00 0.00 0.00 0.00 0.01
0.00 0.00 0.00 0.00 0.00 0.00 0.00 0.00 0.00 0.00 0.00 0.00 0.00 0.00 0.00 0.00 0.00 0.00 0.00 0.00 0.00 0.00 0.00 0.00 0.00 0.00 0.00 0.00 0.00 0.00 0.00 0.00 0.00 0.00 0.00 0.00 0.00 0.00 0.00 0.00 0.00 0.00 0.02 0.02 0.01 0.00 0.00 0.00 0.00
0.00 0.00 0.00 0.00 0.00 0.00 0.00 0.00 0.00 0.00 0.00 0.00 0.00 0.00 0.00 0.00 0.00 0.00 0.00 0.00 0.00 0.00 0.00 0.00 0.00 0.00 0.00 0.00 0.00 0.00 0.00 0.00 0.00 0.00 0.00 0.00 0.00 0.00 0.00 0.00 0.00 0.00 0.00 0.01 0.00 0.00 0.00 0.00 0.00
0.00 0.00 0.00 0.00 0.00 0.00 0.00 0.00 0.00 0.00 0.00 0.00 0.00 0.00 0.00 0.00 0.00 0.00 0.00 0.00 0.00 0.00 0.00 0.00 0.00 0.00 0.00 0.00 0.00 0.00 0.00 0.00 0.00 0.00 0.00 0.00 0.00 0.00 0.00 0.00 0.00 0.00 0.00 0.00 0.00 0.00 0.00 0.00 0.00
0.00 0.00 0.00 0.00 0.00 0.00 0.00 0.00 0.00 0.00 0.00 0.00 0.00 0.00 0.00 0.00 0.00 0.00 0.00 0.00 0.00 0.00 0.00 0.00 0.00 0.00 0.00 0.00 0.00 0.00 0.00 0.00 0.00 0.00 0.00 0.00 0.00 0.00 0.00 0.00 0.00 0.00 0.00 0.00 0.00 0.00 0.00 0.00 0.00
0.00 0.00 0.00 0.00 0.00 0.00 0.00 0.00 0.00 0.00 0.00 0.00 0.00 0.00 0.00 0.00 0.00 0.00 0.00 0.00 0.00 0.00 0.00 0.00 0.00 0.00 0.00 0.00 0.00 0.00 0.00 0.00 0.00 0.00 0.00 0.00 0.00 0.00 0.00 0.00 0.00 0.00 0.00 0.00 0.00 0.00 0.00 0.00 0.00
0.00 0.00 0.00 0.00 0.00 0.00 0.00 0.00 0.00 0.00 0.00 0.00 0.00 0.00 0.00 0.00 0.00 0.00 0.00 0.00 0.00 0.00 0.00 0.00 0.00 0.00 0.00 0.00 0.00 0.00 0.00 0.00 0.00 0.00 0.00 0.00 0.00 0.00 0.00 0.00 0.00 0.00 0.00 0.00 0.00 0.00 0.00 0.00 0.00
0.00 0.00 0.00 0.00 0.00 0.00 0.00 0.00 0.00 0.00 0.00 0.00 0.00 0.00 0.00 0.00 0.00 0.00 0.00 0.00 0.00 0.00 0.00 0.00 0.00 0.00 0.00 0.00 0.00 0.00 0.00 0.00 0.00 0.00 0.00 0.00 0.00 0.00 0.00 0.00 0.00 0.00 0.00 0.00 0.00 0.00 0.00 0.00 0.00
0.00 0.00 0.00 0.00 0.00 0.00 0.00 0.00 0.00 0.00 0.00 0.00 0.00 0.00 0.00 0.00 0.00 0.00 0.00 0.00 0.00 0.00 0.00 0.00 0.00 0.00 0.00 0.00 0.00 0.00 0.00 0.00 0.00 0.00 0.00 0.00 0.00 0.00 0.00 0.00 0.00 0.00 0.00 0.00 0.00 0.00 0.00 0.00 0.00
0.00 0.00 0.00 0.00 0.00 0.00 0.00 0.00 0.00 0.00 0.00 0.00 0.00 0.00 0.00 0.00 0.00 0.00 0.00 0.00 0.00 0.00 0.00 0.00 0.00 0.00 0.00 0.00 0.00 0.00 0.00 0.00 0.00 0.00 0.00 0.00 0.00 0.00 0.00 0.00 0.00 0.00 0.00 0.00 0.00 0.00 0.00 0.00 0.00
0.00 0.00 0.00 0.00 0.00 0.00 0.00 0.00 0.00 0.00 0.00 0.00 0.00 0.00 0.00 0.00 0.00 0.00 0.00 0.00 0.00 0.00 0.00 0.00 0.00 0.00 0.00 0.00 0.00 0.00 0.00 0.00 0.00 0.00 0.00 0.00 0.00 0.00 0.00 0.00 0.00 0.00 0.00 0.00 0.00 0.00 0.00 0.00 0.00
0.00 0.00 0.00 0.00 0.00 0.00 0.00 0.00 0.00 0.00 0.00 0.00 0.00 0.00 0.00 0.00 0.00 0.00 0.00 0.00 0.00 0.00 0.00 0.00 0.00 0.00 0.00 0.00 0.00 0.00 0.00 0.00 0.00 0.00 0.00 0.00 0.00 0.00 0.00 0.00 0.00 0.00 0.00 0.00 0.00 0.00 0.00 0.00 0.00
0.00 0.00 0.00 0.00 0.00 0.00 0.00 0.00 0.00 0.00 0.00 0.00 0.00 0.00 0.00 0.00 0.00 0.00 0.00 0.00 0.00 0.00 0.00 0.00 0.00 0.00 0.00 0.00 0.00 0.00 0.00 0.00 0.00 0.00 0.00 0.00 0.00 0.00 0.00 0.00 0.00 0.00 0.00 0.00 0.00 0.00 0.00 0.00 0.00
0.00 0.00 0.00 0.00 0.00 0.00 0.00 0.00 0.00 0.00 0.00 0.00 0.00 0.00 0.00 0.00 0.00 0.00 0.00 0.00 0.00 0.00 0.00 0.00 0.00 0.00 0.00 0.00 0.01 0.00 0.00 0.00 0.00 0.00 0.00 0.00 0.00 0.00 0.00 0.00 0.00 0.00 0.00 0.00 0.00 0.00 0.00 0.00 0.00
0.00 0.00 0.00 0.00 0.00 0.00 0.00 0.00 0.00 0.00 0.00 0.00 0.00 0.00 0.00 0.00 0.00 0.00 0.00 0.00 0.00 0.00 0.00 0.00 0.00 0.00 0.00 0.00 0.01 0.01 0.01 0.00 0.00 0.00 0.00 0.00 0.00 0.00 0.00 0.00 0.00 0.00 0.00 0.00 0.00 0.00 0.00 0.00 0.00
0.00 0.00 0.00 0.00 0.00 0.00 0.00 0.00 0.00 0.00 0.00 0.00 0.00 0.00 0.00 0.00 0.00 0.00 0.00 0.00 0.00 0.00 0.00 0.00 0.00 0.00 0.00 0.00 0.00 0.00 0.01 0.01 0.00 0.00 0.00 0.00 0.00 0.00 0.00 0.00 0.00 0.00 0.00 0.00 0.00 0.00 0.00 0.00 0.00
0.00 0.00 0.00 0.00 0.00 0.00 0.00 0.00 0.00 0.00 0.00 0.00 0.00 0.00 0.00 0.00 0.00 0.00 0.00 0.00 0.00 0.00 0.00 0.00 0.00 0.00 0.00 0.00 0.00 0.00 0.00 0.01 0.01 0.00 0.00 0.00 0.00 0.00 0.00 0.00 0.00 0.00 0.00 0.00 0.00 0.00 0.00 0.00 0.00
0.00 0.00 0.00 0.00 0.00 0.00 0.00 0.00 0.00 0.00 0.00 0.00 0.00 0.00 0.00 0.00 0.00 0.00 0.00 0.00 0.00 0.00 0.00 0.00 0.00 0.00 0.00 0.00 0.00 0.00 0.00 0.00 0.01 0.01 0.01 0.01 0.01 0.00 0.00 0.00 0.00 0.00 0.00 0.00 0.00 0.00 0.00 0.00 0.00
0.00 0.00 0.00 0.00 0.00 0.00 0.00 0.00 0.00 0.00 0.00 0.00 0.00 0.00 0.00 0.00 0.00 0.00 0.00 0.00 0.00 0.00 0.00 0.00 0.00 0.00 0.00 0.00 0.00 0.00 0.00 0.00 0.00 0.01 0.02 0.02 0.03 0.03 0.03 0.03 0.02 0.01 0.00 0.00 0.00 0.00 0.00 0.00 0.00
0.00 0.00 0.00 0.00 0.00 0.00 0.00 0.00 0.00 0.00 0.00 0.00 0.00 0.00 0.00 0.00 0.00 0.00 0.00 0.00 0.00 0.00 0.00 0.00 0.00 0.00 0.00 0.00 0.00 0.00 0.00 0.00 0.00 0.00 0.01 0.02 0.03 0.04 0.05 0.05 0.05 0.05 0.04 0.02 0.01 0.00 0.00 0.00 0.00
MSLP
1011.94 1011.34 1010.83 1010.33 1009.62 1007.81 1005.97 1004.99 1005.05 1005.24 1005.39 1005.52 1005.72 1005.48 1005.72 1005.82 1006.62 1008.76 1010.30 1010.42 1010.14 1010.93 1012.19 1013.04 1013.51 1013.88 1014.18 1014.42 1014.63 1014.81 1014.96 1015.08 1015.24 1015.36 1015.36 1015.47 1015.59 1015.62 1015.80 1015.96 1015.97 1015.87 1015.80 1016.10 1016.24 1016.35 1016.44 1016.46 1016.44
1011.05 1011.00 1010.52 1009.07 1008.34 1006.32 1005.07 1004.66 1005.14 1005.22 1005.86 1006.29 1006.50 1006.48 1006.44 1006.69 1007.91 1009.43 1010.02 1010.89 1010.58 1011.51 1012.72 1013.21 1013.79 1014.26 1014.56 1014.85 1015.14 1015.40 1015.51 1015.53 1015.54 1015.65 1015.75 1015.86 1015.83 1015.89 1016.02 1016.10 1016.20 1016.27 1016.39 1016.52 1016.75 1016.84 1016.73 1016.77 1016.80
1010.87 1010.70 1009.46 1008.48 1007.33 1005.50 1004.34 1004.85 1005.02 1005.73 1006.58 1006.58 1006.72 1007.14 1007.22 1007.78 1008.93 1009.39 1010.46 1011.02 1011.01 1011.99 1013.03 1013.56 1014.15 1014.59 1014.89 1015.22 1015.47 1015.57 1015.78 1015.96 1016.03 1016.19 1016.22 1016.15 1016.29 1016.34 1016.42 1016.64 1016.70 1016.77 1016.83 1016.96 1016.99 1017.18 1017.10 1017.08 1017.10
1010.37 1010.38 1009.49 1008.06 1006.23 1005.56 1004.98 1005.36 1006.02 1006.17 1007.02 1007.18 1007.12 1007.16 1008.28 1009.53 1009.53 1010.23 1011.08 1011.12 1011.58 1012.94 1013.44 1014.05 1014.44 1014.87 1015.18 1015.43 1015.62 1015.86 1016.24 1016.49 1016.70 1016.73 1016.69 1016.52 1016.56 1016.63 1016.66 1016.95 1017.05 1017.09 1017.21 1017.21 1017.31 1017.40 1017.47 1017.34 1017.41
1010.03 1009.21 1008.29 1007.39 1006.41 1005.43 1005.86 1005.94 1006.30 1006.07 1006.50 1007.02 1007.50 1007.46 1008.55 1010.30 1010.77 1010.99 1011.38 1011.58 1011.95 1013.12 1013.71 1014.28 1014.69 1015.12 1015.33 1015.66 1015.84 1016.16 1016.34 1016.61 1016.87 1016.93 1017.01 1017.02 1017.00 1016.89 1016.94 1017.29 1017.33 1017.38 1017.44 1017.51 1017.53 1017.68 1017.83 1017.80 1017.90
1009.39 1008.86 1007.63 1006.70 1005.99 1005.69 1006.07 1006.21 1006.39 1006.50 1006.54 1007.24 1007.71 1007.82 1009.24 1010.83 1011.02 1011.47 1011.73 1011.88 1012.22 1013.21 1014.16 1014.60 1015.06 1015.34 1015.59 1015.83 1016.20 1016.45 1016.70 1016.94 1017.07 1017.04 1017.09 1017.21 1017.32 1017.25 1017.13 1017.66 1017.64 1017.67 1017.65 1017.72 1017.86 1018.03 1018.04 1018.05 1018.13
1008.84 1008.46 1007.40 1006.54 1006.19 1006.05 1006.12 1006.69 1006.66 1006.47 1006.70 1007.03 1007.68 1007.92 1009.74 1010.82 1011.72 1011.96 1012.07 1012.37 1012.74 1013.39 1014.37 1014.91 1015.25 1015.63 1015.94 1016.19 1016.48 1016.73 1017.01 1017.26 1017.48 1017.44 1017.51 1017.63 1017.66 1017.63 1017.64 1017.60 1017.78 1017.68 1017.84 1017.93 1018.09 1018.19 1018.23 1018.35 1018.46
1009.01 1008.61 1007.39 1007.28 1006.53 1006.32 1007.00 1007.15 1007.44 1007.29 1007.17 1008.07 1008.46 1008.31 1009.73 1011.43 1012.25 1012.53 1012.78 1013.01 1013.26 1013.84 1014.43 1015.13 1015.48 1015.73 1016.03 1016.42 1016.87 1017.09 1017.39 1017.55 1017.63 1017.66 1017.75 1017.77 1017.72 1017.81 1017.85 1017.95 1017.94 1018.05 1018.02 1018.08 1018.24 1018.35 1018.40 1018.75 1018.82
1009.63 1008.76 1007.43 1006.94 1007.08 1006.88 1007.64 1007.34 1007.95 1008.36 1008.11 1008.76 1009.51 1010.47 1011.78 1012.64 1013.17 1013.41 1013.67 1013.90 1014.13 1014.46 1014.66 1014.89 1015.25 1015.76 1016.02 1016.14 1017.08 1017.42 1017.69 1017.83 1017.84 1017.78 1017.81 1017.65 1017.10 1017.41 1017.82 1018.16 1018.07 1018.08 1018.17 1018.21 1018.35 1018.60 1018.70 1019.17 1019.36
1009.30 1008.60 1007.43 1007.71 1007.82 1007.72 1008.09 1008.07 1008.32 1008.57 1009.14 1009.81 1010.57 1012.02 1012.78 1013.18 1013.61 1014.06 1014.27 1014.49 1014.76 1015.06 1015.23 1015.36 1015.40 1015.92 1016.10 1016.30 1016.57 1016.62 1017.05 1017.08 1017.08 1017.20 1017.26 1017.05 1017.11 1017.36 1017.67 1018.11 1018.25 1018.18 1018.36 1018.54 1018.67 1018.91 1019.04 1019.23 1019.05
1009.11 1008.50 1007.84 1008.45 1008.68 1008.81 1008.77 1008.86 1009.60 1009.90 1011.60 1012.71 1013.27 1013.60 1013.75 1013.99 1014.51 1014.69 1015.17 1015.33 1015.39 1015.41 1015.78 1016.04 1016.00 1016.15 1016.15 1016.42 1016.48 1016.64 1016.90 1017.00 1017.13 1017.28 1017.26 1017.12 1017.38 1017.50 1017.60 1017.51 1017.64 1017.84 1018.43 1018.59 1018.77 1019.09 1018.80 1018.60 1019.18
1008.81 1008.81 1008.59 1008.84 1009.33 1009.37 1009.42 1010.03 1011.87 1013.36 1015.38 1016.00 1016.29 1016.54 1016.50 1016.55 1017.39 1017.79 1017.56 1017.61 1017.31 1016.76 1016.52 1016.56 1016.42 1016.47 1016.49 1016.54 1016.89 1016.62 1016.96 1017.13 1017.10 1017.34 1017.55 1017.43 1017.47 1017.51 1017.37 1017.35 1017.39 1017.88 1018.12 1018.56 1018.72 1018.81 1018.97 1019.35 1019.61
1008.75 1008.42 1008.76 1009.15 1009.64 1009.99 1010.62 1011.15 1013.25 1015.31 1016.85 1017.59 1018.15 1018.41 1018.79 1019.36 1019.70 1020.13 1020.19 1019.98 1019.63 1019.01 1018.43 1017.42 1016.88 1016.85 1016.80 1016.98 1016.69 1016.85 1016.91 1017.22 1017.19 1017.54 1017.63 1017.66 1017.72 1017.70 1017.70 1017.70 1017.76 1017.91 1018.17 1018.67 1018.83 1019.17 1019.62 1019.82 1020.18
1008.07 1008.36 1008.59 1008.93 1009.44 1010.17 1010.92 1012.62 1013.14 1016.83 1017.86 1018.66 1019.30 1020.12 1020.95 1021.55 1021.97 1022.07 1022.05 1021.93 1021.60 1020.93 1020.05 1018.84 1017.53 1017.03 1016.88 1017.04 1017.01 1016.95 1017.02 1017.20 1017.50 1017.57 1017.76 1017.92 1017.87 1017.96 1018.11 1018.05 1018.08 1018.02 1018.22 1018.55 1019.13 1019.45 1019.75 1020.14 1020.72
1008.44 1008.56 1008.39 1008.58 1009.28 1010.18 1011.22 1013.85 1016.07 1017.54 1018.74 1019.63 1020.56 1021.56 1022.57 1023.39 1023.70 1023.93 1024.24 1024.00 1023.57 1022.66 1021.55 1020.15 1018.30 1017.27 1017.20 1017.06 1017.20 1017.15 1017.26 1017.48 1017.57 1017.66 1017.85 1018.08 1018.13 1018.25 1018.36 1018.41 1018.41 1018.36 1018.38 1018.87 1019.24 1019.62 1020.10 1020.46 1021.07
1008.36 1008.20 1007.57 1008.10 1009.26 1010.31 1011.20 1014.85 1017.59 1018.63 1019.53 1020.71 1021.84 1022.83 1023.75 1024.69 1025.23 1025.56 1025.61 1025.36 1024.91 1024.14 1023.03 1021.76 1020.37 1018.22 1017.67 1017.25 1017.14 1017.31 1017.39 1017.56 1017.60 1017.71 1017.83 1018.12 1018.23 1018.35 1018.51 1018.54 1018.52 1018.49 1018.56 1018.95 1018.92 1019.69 1020.25 1020.78 1021.29
1007.60 1006.41 1006.82 1008.11 1008.97 1010.09 1011.81 1015.38 1018.46 1019.77 1020.69 1021.86 1023.09 1024.03 1024.92 1025.73 1026.20 1026.48 1026.59 1026.41 1025.97 1025.38 1024.41 1023.22 1021.92 1020.66 1019.15 1017.49 1017.35 1017.44 1017.56 1017.66 1017.61 1017.79 1017.96 1018.11 1018.29 1018.51 1018.57 1018.61 1018.60 1018.88 1018.90 1019.17 1019.28 1019.69 1020.20 1020.64 1021.34
1006.03 1006.52 1006.55 1006.97 1009.00 1009.95 1012.54 1016.42 1019.13 1020.88 1021.97 1023.25 1024.44 1025.24 1025.96 1026.65 1027.30 1027.48 1027.44 1027.29 1026.91 1026.42 1025.58 1024.59 1023.50 1022.42 1021.09 1019.13 1017.81 1017.78 1017.76 1017.83 1017.79 1017.93 1017.98 1018.20 1018.36 1018.63 1018.74 1018.68 1018.73 1018.99 1018.99 1019.42 1019.51 1019.69 1020.09 1020.47 1021.23
1006.56 1006.18 1006.30 1007.19 1008.87 1009.95 1012.76 1016.52 1019.69 1021.80 1023.03 1024.28 1025.44 1026.30 1026.96 1027.50 1028.25 1028.32 1028.21 1028.04 1027.72 1027.11 1026.44 1025.76 1024.89 1024.12 1022.92 1021.72 1020.41 1018.39 1018.05 1018.03 1018.10 1018.22 1018.35 1018.39 1018.48 1018.67 1018.84 1018.78 1018.90 1019.10 1019.02 1019.43 1019.64 1019.94 1020.25 1020.86 1021.47
1007.38 1006.99 1006.84 1007.29 1008.78 1010.38 1013.49 1017.00 1020.15 1022.31 1024.06 1025.45 1026.37 1027.27 1027.91 1028.32 1028.49 1028.72 1028.73 1028.73 1028.61 1028.43 1027.86 1027.11 1026.46 1025.67 1024.77 1023.70 1022.32 1020.78 1019.24 1018.45 1018.34 1018.39 1018.69 1018.75 1018.75 1018.90 1019.00 1018.94 1018.98 1019.04 1019.17 1019.21 1019.89 1020.36 1020.61 1021.10 1021.50
1007.58 1007.23 1007.02 1007.67 1009.14 1010.25 1012.79 1016.61 1019.71 1022.49 1024.17 1025.64 1026.90 1027.91 1028.63 1029.15 1029.40 1029.56 1029.50 1029.50 1029.51 1029.32 1029.04 1028.58 1027.95 1027.20 1026.39 1025.45 1023.80 1021.94 1020.29 1019.54 1019.26 1019.09 1019.07 1019.07 1019.22 1019.24 1019.33 1019.26 1019.22 1019.14 1019.21 1019.28 1019.84 1020.37 1020.67 1020.98 1021.36
1007.53 1007.41 1007.78 1008.15 1009.09 1009.18 1010.83 1013.65 1018.01 1021.55 1024.03 1025.90 1027.32 1028.38 1029.09 1029.63 1030.06 1030.39 1030.42 1030.29 1030.33 1030.32 1030.16 1029.70 1029.05 1028.35 1027.65 1026.90 1025.81 1024.96 1024.04 1022.96 1022.09 1020.24 1019.63 1019.25 1019.49 1019.53 1019.59 1019.60 1019.49 1019.41 1019.33 1019.44 1019.46 1020.02 1020.44 1020.62 1021.00
1007.99 1008.25 1008.19 1008.54 1008.94 1009.27 1010.71 1013.27 1017.95 1021.26 1023.84 1026.35 1028.03 1029.10 1029.82 1030.32 1030.62 1030.82 1030.92 1030.96 1031.03 1030.94 1030.76 1030.47 1030.05 1029.46 1028.88 1028.22 1027.58 1026.76 1025.92 1025.19 1024.24 1022.93 1021.65 1020.28 1019.78 1020.06 1020.05 1020.04 1019.82 1019.72 1019.58 1019.53 1019.51 1019.55 1020.06 1020.35 1020.50
1009.02 1008.83 1008.94 1009.09 1009.14 1009.51 1010.31 1013.09 1018.12 1021.64 1024.80 1027.14 1028.83 1029.95 1030.61 1031.04 1031.28 1031.57 1031.65 1031.56 1031.52 1031.38 1031.10 1030.82 1030.46 1030.19 1029.81 1029.35 1028.81 1028.22 1027.62 1026.90 1026.04 1025.38 1024.56 1023.47 1022.18 1021.36 1020.63 1020.59 1020.44 1020.11 1019.84 1019.69 1019.56 1019.53 1019.65 1020.02 1020.09
1009.48 1008.99 1008.70 1009.05 1009.30 1008.84 1010.52 1013.51 1020.35 1024.29 1026.91 1028.69 1029.92 1030.82 1031.44 1031.86 1032.02 1032.21 1032.25 1032.18 1032.13 1031.98 1031.76 1031.39 1030.95 1030.60 1030.50 1030.27 1029.89 1029.52 1029.05 1028.43 1027.88 1027.41 1026.66 1025.80 1025.00 1024.25 1023.52 1022.58 1021.19 1020.50 1020.16 1019.93 1019.71 1019.59 1019.55 1019.77 1019.86
1009.49 1008.93 1008.04 1007.63 1007.97 1008.88 1012.05 1015.95 1022.15 1025.98 1028.20 1029.82 1030.81 1031.53 1032.19 1032.60 1032.90 1033.09 1033.19 1033.15 1033.06 1032.92 1032.70 1032.42 1031.95 1031.55 1031.20 1030.87 1030.64 1030.55 1030.12 1029.64 1029.19 1028.72 1028.08 1027.40 1026.81 1026.18 1025.46 1024.55 1023.14 1021.66 1020.51 1020.14 1019.89 1019.72 1019.59 1019.47 1019.65
1010.01 1009.82 1009.42 1009.04 1009.03 1010.40 1013.12 1019.99 1024.27 1026.84 1028.80 1030.28 1031.40 1032.26 1033.02 1033.51 1033.77 1033.95 1034.04 1034.08 1034.00 1033.85 1033.64 1033.34 1033.04 1032.65 1032.22 1031.77 1031.30 1030.92 1030.72 1030.42 1030.10 1029.68 1029.11 1028.48 1027.84 1026.98 1026.31 1025.52 1024.53 1023.37 1022.21 1020.61 1019.97 1019.78 1019.51 1019.36 1019.27
1011.32 1011.18 1010.66 1010.49 1010.17 1011.08 1013.21 1018.35 1023.14 1026.85 1029.01 1030.78 1032.02 1033.12 1033.83 1034.29 1034.56 1034.73 1034.77 1034.85 1034.86 1034.76 1034.61 1034.35 1034.02 1033.61 1033.24 1032.79 1032.20 1031.69 1031.14 1030.69 1030.43 1030.19 1029.63 1029.07 1028.43 1027.67 1026.89 1026.10 1025.29 1024.42 1023.46 1022.35 1021.31 1019.99 1019.53 1019.11 1018.85
1012.82 1012.44 1012.26 1012.12 1011.92 1012.79 1015.26 1021.22 1025.12 1027.75 1030.26 1031.74 1033.06 1034.02 1034.69 1035.15 1035.49 1035.66 1035.68 1035.75 1035.83 1035.74 1035.53 1035.28 1034.91 1034.50 1034.04 1033.56 1033.02 1032.48 1031.92 1031.43 1030.90 1030.40 1029.92 1029.44 1028.90 1028.20 1027.49 1026.84 1026.02 1025.18 1024.39 1023.58 1022.49 1021.40 1020.15 1019.24 1018.81
1016.23 1015.95 1015.48 1014.80 1014.43 1015.74 1018.75 1024.24 1028.05 1030.11 1031.97 1033.08 1034.04 1034.90 1035.62 1036.16 1036.53 1036.73 1036.76 1036.71 1036.71 1036.65 1036.50 1036.29 1035.97 1035.53 1035.09 1034.52 1033.90 1033.19 1032.64 1032.14 1031.68 1031.11 1030.55 1029.91 1029.21 1028.50 1028.00 1027.35 1026.65 1025.87 1025.12 1024.38 1023.40 1022.52 1021.69 1020.82 1019.51
Thickness
5675 5680 5684 5681 5663 5675 5680 5695 5710 5701 5702 5717 5720 5719 5716 5722 5710 5691 5707 5711 5717 5711 5699 5691 5687 5683 5681 5681 5681 5680 5680 5679 5678 5679 5680 5680 5683 5683 5684 5684 5685 5687 5688 5687 5686 5687 5688 5691 5693
5680 5680 5679 5681 5661 5668 5685 5710 5695 5705 5708 5712 5711 5712 5712 5707 5716 5704 5706 5708 5713 5705 5695 5691 5685 5680 5679 5678 5677 5675 5676 5676 5676 5676 5676 5676 5680 5680 5681 5682 5683 5684 5683 5683 5682 5682 5686 5687 5688
5681 5680 5673 5670 5669 5674 5695 5702 5704 5706 5704 5706 5705 5711 5710 5704 5708 5709 5708 5707 5709 5701 5693 5689 5683 5679 5678 5675 5674 5675 5674 5673 5673 5672 5673 5675 5675 5674 5676 5676 5678 5678 5679 5679 5680 5680 5682 5684 5685
5677 5672 5675 5664 5673 5689 5695 5699 5699 5699 5697 5703 5706 5701 5707 5705 5706 5707 5705 5708 5705 5694 5690 5686 5683 5679 5677 5675 5674 5673 5671 5670 5669 5670 5671 5673 5673 5674 5674 5672 5673 5674 5675 5677 5677 5679 5680 5682 5682
5678 5676 5663 5664 5673 5694 5695 5700 5699 5699 5701 5700 5702 5699 5699 5697 5701 5703 5702 5703 5700 5693 5688 5684 5681 5677 5676 5675 5674 5672 5672 5670 5669 5670 5670 5670 5672 5672 5673 5670 5670 5671 5672 5673 5675 5675 5676 5677 5677
5665 5674 5662 5663 5679 5694 5695 5700 5698 5698 5704 5699 5696 5701 5695 5695 5697 5697 5699 5699 5698 5691 5685 5682 5678 5676 5675 5674 5672 5670 5670 5668 5668 5669 5670 5670 5669 5671 5672 5666 5669 5668 5668 5668 5670 5671 5673 5675 5676
5666 5664 5665 5675 5676 5683 5691 5698 5693 5699 5701 5699 5706 5696 5693 5692 5691 5694 5696 5696 5694 5689 5682 5678 5676 5674 5673 5671 5670 5669 5667 5666 5666 5667 5667 5668 5668 5668 5668 5669 5667 5668 5665 5663 5665 5668 5670 5671 5673
5670 5667 5668 5669 5672 5678 5688 5692 5695 5696 5698 5703 5703 5695 5689 5686 5687 5688 5688 5688 5689 5685 5680 5676 5674 5672 5671 5669 5667 5666 5664 5664 5664 5665 5666 5667 5667 5666 5666 5665 5665 5664 5665 5662 5662 5666 5667 5667 5669
5668 5657 5661 5672 5670 5680 5687 5689 5693 5696 5696 5695 5693 5686 5680 5678 5677 5676 5676 5677 5677 5677 5677 5675 5673 5670 5669 5669 5664 5662 5661 5661 5662 5663 5664 5666 5669 5667 5665 5664 5665 5665 5665 5664 5664 5664 5666 5664 5663
5659 5656 5668 5677 5678 5679 5682 5686 5688 5688 5686 5682 5682 5677 5674 5674 5673 5670 5670 5669 5669 5669 5670 5670 5670 5667 5666 5666 5665 5665 5664 5664 5665 5665 5666 5668 5668 5667 5666 5663 5663 5663 5662 5662 5663 5662 5662 5661 5663
5658 5655 5674 5670 5674 5676 5676 5680 5680 5677 5658 5660 5657 5662 5667 5669 5667 5669 5666 5665 5666 5666 5665 5663 5664 5663 5664 5663 5663 5663 5663 5663 5663 5663 5665 5667 5666 5666 5665 5666 5666 5664 5661 5660 5660 5659 5661 5664 5661
5651 5661 5667 5668 5667 5669 5669 5671 5653 5645 5633 5636 5636 5638 5642 5645 5641 5640 5645 5647 5651 5657 5659 5659 5659 5659 5659 5660 5659 5662 5661 5661 5661 5661 5661 5663 5663 5663 5665 5666 5667 5664 5662 5659 5659 5659 5658 5657 5656
5650 5662 5665 5666 5663 5663 5661 5659 5644 5631 5627 5625 5622 5622 5622 5621 5622 5620 5622 5626 5630 5636 5641 5651 5655 5655 5655 5654 5657 5657 5658 5657 5658 5657 5658 5658 5659 5660 5661 5661 5661 5660 5659 5656 5656 5654 5652 5651 5650
5662 5662 5663 5664 5663 5660 5654 5645 5653 5621 5620 5616 5614 5608 5603 5600 5600 5601 5603 5606 5610 5617 5624 5635 5645 5649 5651 5652 5653 5653 5653 5653 5652 5653 5653 5652 5654 5654 5654 5655 5656 5656 5655 5654 5651 5649 5647 5646 5643
5654 5647 5658 5662 5660 5654 5654 5625 5614 5618 5612 5608 5603 5597 5588 5583 5583 5583 5582 5586 5591 5600 5609 5621 5635 5643 5644 5647 5647 5648 5649 5648 5648 5648 5647 5647 5647 5648 5648 5649 5650 5651 5651 5648 5647 5644 5642 5639 5636
5642 5648 5650 5660 5653 5652 5653 5612 5602 5607 5605 5597 5590 5585 5578 5570 5568 5567 5568 5572 5577 5584 5594 5604 5615 5632 5636 5640 5642 5641 5642 5642 5643 5643 5643 5642 5642 5642 5642 5642 5643 5644 5644 5643 5644 5640 5637 5634 5631
5644 5653 5654 5645 5654 5649 5642 5610 5594 5595 5593 5584 5577 5572 5566 5560 5557 5557 5557 5560 5565 5571 5579 5589 5599 5608 5621 5633 5635 5635 5634 5634 5636 5635 5636 5636 5636 5635 5635 5636 5637 5636 5637 5636 5637 5635 5633 5631 5626
5648 5642 5653 5654 5645 5649 5626 5596 5587 5580 5576 5567 5560 5557 5554 5549 5545 5546 5547 5550 5554 5558 5566 5574 5583 5591 5602 5616 5626 5626 5627 5627 5627 5627 5629 5629 5629 5628 5628 5629 5629 5628 5630 5628 5629 5629 5628 5627 5622
5646 5652 5651 5652 5646 5645 5622 5596 5575 5563 5560 5554 5546 5542 5539 5538 5534 5534 5537 5539 5542 5548 5554 5560 5567 5573 5582 5590 5600 5618 5620 5620 5619 5619 5619 5619 5620 5619 5619 5621 5621 5620 5623 5621 5621 5621 5620 5617 5612
5632 5635 5641 5649 5643 5633 5605 5580 5560 5550 5539 5534 5531 5526 5524 5524 5525 5525 5526 5527 5528 5531 5536 5542 5548 5555 5562 5569 5580 5592 5603 5609 5609 5609 5608 5609 5610 5610 5610 5612 5613 5613 5614 5616 5611 5609 5609 5607 5604
5626 5630 5637 5634 5626 5627 5604 5575 5554 5541 5537 5529 5522 5516 5512 5508 5508 5508 5511 5513 5513 5515 5519 5523 5528 5535 5542 5550 5562 5575 5585 5591 5594 5596 5597 5598 5597 5599 5599 5601 5602 5603 5604 5606 5603 5600 5599 5598 5597
5619 5635 5629 5626 5617 5620 5628 5621 5579 5547 5530 5520 5512 5505 5501 5498 5495 5493 5494 5496 5497 5498 5500 5505 5510 5516 5522 5529 5537 5542 5547 5553 5562 5579 5583 5585 5585 5586 5587 5588 5589 5591 5592 5594 5596 5592 5591 5591 5590
5617 5619 5619 5617 5613 5619 5616 5610 5552 5548 5533 5508 5498 5491 5486 5484 5482 5481 5481 5482 5482 5483 5485 5488 5492 5497 5502 5508 5512 5518 5523 5529 5536 5546 5556 5567 5570 5570 5571 5573 5575 5577 5579 5580 5582 5584 5582 5582 5583
5606 5606 5605 5605 5606 5590 5618 5615 5562 5551 5514 5495 5482 5474 5470 5468 5468 5466 5465 5467 5467 5469 5472 5475 5478 5480 5483 5487 5491 5495 5500 5505 5511 5516 5521 5530 5541 5548 5554 5557 5559 5562 5565 5567 5568 5571 5572 5571 5572
5593 5596 5589 5582 5578 5596 5610 5613 5512 5479 5470 5466 5460 5455 5453 5451 5450 5449 5449 5450 5451 5453 5455 5458 5462 5465 5466 5467 5470 5472 5476 5481 5485 5488 5494 5500 5507 5514 5523 5530 5540 5546 5549 5552 5555 5557 5559 5558 5558
5585 5593 5595 5587 5594 5607 5589 5588 5484 5461 5453 5446 5442 5439 5435 5432 5430 5429 5429 5430 5431 5432 5434 5436 5440 5443 5446 5449 5450 5451 5454 5458 5462 5466 5470 5476 5480 5487 5494 5502 5512 5523 5531 5536 5539 5543 5545 5548 5547
5579 5570 5586 5582 5595 5582 5571 5459 5451 5448 5440 5434 5426 5421 5414 5411 5409 5409 5409 5408 5409 5410 5412 5414 5416 5419 5422 5426 5430 5432 5434 5436 5439 5443 5447 5453 5458 5465 5471 5479 5487 5496 5505 5516 5521 5527 5531 5533 5535
5561 5565 5564 5567 5562 5569 5592 5540 5494 5441 5433 5419 5409 5398 5394 5391 5389 5388 5388 5387 5387 5388 5388 5390 5393 5395 5398 5401 5405 5408 5412 5416 5418 5421 5425 5430 5435 5442 5449 5456 5463 5471 5478 5487 5495 5508 5513 5518 5522
5551 5553 5552 5551 5558 5562 5570 5505 5440 5427 5406 5398 5387 5379 5374 5371 5368 5367 5367 5366 5365 5365 5366 5368 5370 5373 5376 5379 5382 5385 5388 5392 5395 5399 5403 5407 5412 5418 5424 5430 5437 5444 5452 5459 5468 5477 5489 5498 5504
5498 5503 5515 5533 5545 5534 5520 5462 5396 5387 5375 5372 5365 5360 5353 5348 5344 5342 5342 5342 5341 5340 5341 5342 5344 5347 5350 5353 5357 5362 5365 5368 5370 5374 5378 5383 5389 5394 5399 5404 5410 5416 5423 5431 5441 5449 5455 5463 5477